EW6780 Weather Reports


time (UTC)temp
C
wind
direction
speed
KPH
gust
KPH
rain 1hr
cm
rain 24hr
cm
rain mn
cm
humidity
%
barometer
mb
20260504004604 12 295 0.0 0.0 0.00 0.00 0.00 39 1011.6
20260504004110 12 295 0.0 0.0 0.00 0.00 0.00 38 1011.6
20260504003605 13 295 0.0 0.0 0.00 0.00 0.00 38 1011.6
20260504003110 13 295 0.0 0.0 0.00 0.00 0.00 38 1011.5
20260504002607 13 295 0.0 0.0 0.00 0.00 0.00 37 1011.4
20260504002107 13 295 0.0 0.0 0.00 0.00 0.00 37 1011.3
20260504001610 13 295 0.0 0.0 0.00 0.00 0.00 36 1011.2
20260504001104 13 295 0.0 0.0 0.00 0.00 0.00 36 1011.1
20260504000610 13 295 0.0 0.0 0.00 0.00 0.00 35 1011.0
20260504000108 14 295 0.0 0.0 0.00 0.00 0.00 35 1011.0
20260503235604 14 295 0.0 0.0 0.00 0.00 0.00 34 1011.0
20260503235104 14 295 0.0 0.0 0.00 0.00 0.00 33 1010.9
20260503234610 15 295 0.0 1.6 0.00 0.00 0.00 33 1010.9
20260503234104 15 284 0.0 1.6 0.00 0.00 0.00 33 1010.8
20260503233604 15 281 0.0 0.0 0.00 0.00 0.00 32 1010.8
20260503233105 15 202 0.0 3.2 0.00 0.00 0.00 32 1010.7
20260503232607 15 293 0.0 3.2 0.00 0.00 0.00 31 1010.7
20260503232110 15 283 0.0 3.2 0.00 0.00 0.00 31 1010.7
20260503231610 15 288 0.0 8.0 0.00 0.00 0.00 30 1010.6
20260503231105 15 291 0.0 6.4 0.00 0.00 0.00 30 1010.6
20260503230607 15 306 3.2 3.2 0.00 0.00 0.00 29 1010.5
20260503230110 15 292 0.0 4.8 0.00 0.00 0.00 30 1010.4
20260503225604 15 319 1.6 17.7 0.00 0.00 0.00 29 1010.4
20260503225107 15 323 4.8 8.0 0.00 0.00 0.00 29 1010.4
20260503224607 15 297 4.8 6.4 0.00 0.00 0.00 29 1010.3
20260503224110 15 266 0.0 6.4 0.00 0.00 0.00 29 1010.4
20260503223610 15 273 0.0 9.7 0.00 0.00 0.00 30 1010.4
20260503223104 16 281 3.2 11.3 0.00 0.00 0.00 28 1010.4
20260503222604 16 259 1.6 11.3 0.00 0.00 0.00 29 1010.3
20260503222110 16 307 3.2 16.1 0.00 0.00 0.00 29 1010.3
20260503221604 16 304 8.0 12.9 0.00 0.00 0.00 28 1010.2
20260503221104 16 281 8.0 8.0 0.00 0.00 0.00 29 1010.3
20260503220605 16 294 0.0 14.5 0.00 0.00 0.00 28 1010.2
20260503220107 16 306 3.2 12.9 0.00 0.00 0.00 28 1010.3
20260503215606 15 274 0.0 16.1 0.00 0.00 0.00 28 1010.3
20260503215104 15 280 3.2 9.7 0.00 0.00 0.00 29 1010.3
20260503214608 15 283 0.0 14.5 0.00 0.00 0.00 28 1010.3
20260503214105 15 304 3.2 14.5 0.00 0.00 0.00 29 1010.3
20260503213613 15 307 1.6 9.7 0.00 0.00 0.00 28 1010.3
20260503213103 15 268 0.0 27.4 0.00 0.00 0.00 28 1010.3
20260503212607 15 297 11.3 14.5 0.00 0.00 0.00 29 1010.3
20260503212105 15 288 3.2 17.7 0.00 0.00 0.00 29 1010.3
20260503211613 15 306 4.8 16.1 0.00 0.00 0.00 29 1010.3
20260503211113 15 270 12.9 16.1 0.00 0.00 0.00 29 1010.2
20260503210604 15 304 4.8 11.3 0.00 0.00 0.00 29 1010.2
20260503210110 15 287 0.0 11.3 0.00 0.00 0.00 29 1010.3
20260503205604 15 310 0.0 16.1 0.00 0.00 0.00 29 1010.2
20260503205107 15 299 6.4 14.5 0.00 0.00 0.00 29 1010.1
20260503204604 15 313 1.6 25.7 0.00 0.00 0.00 30 1010.2
20260503204103 15 296 8.0 25.7 0.00 0.00 0.00 30 1010.3
20260503203604 15 291 3.2 11.3 0.00 0.00 0.00 29 1010.2
20260503203105 15 294 0.0 8.0 0.00 0.00 0.00 29 1010.2
20260503202604 15 305 1.6 17.7 0.00 0.00 0.00 30 1010.3
20260503202107 15 283 4.8 11.3 0.00 0.00 0.00 30 1010.3
20260503201606 15 299 4.8 16.1 0.00 0.00 0.00 31 1010.4
20260503201104 15 281 6.4 9.7 0.00 0.00 0.00 31 1010.4
20260503200607 15 299 14.5 16.1 0.00 0.00 0.00 30 1010.5
20260503200113 15 312 0.0 12.9 0.00 0.00 0.00 31 1010.4
20260503195604 15 279 0.0 24.1 0.00 0.00 0.00 31 1010.7
20260503195107 15 306 14.5 24.1 0.00 0.00 0.00 31 1010.6
20260503194604 15 295 6.4 14.5 0.00 0.00 0.00 30 1010.8
20260503194104 15 323 0.0 16.1 0.00 0.00 0.00 31 1010.8
20260503193607 15 289 11.3 24.1 0.00 0.00 0.00 30 1010.8
20260503193107 15 281 1.6 17.7 0.00 0.00 0.00 32 1010.7
20260503192607 14 304 0.0 16.1 0.00 0.00 0.00 32 1010.9
20260503192108 14 297 19.3 22.5 0.00 0.00 0.00 32 1010.8
20260503191604 14 246 4.8 20.9 0.00 0.00 0.00 32 1010.9
20260503191108 14 309 8.0 14.5 0.00 0.00 0.00 33 1010.9
20260503190608 13 306 4.8 6.4 0.00 0.00 0.00 34 1011.0
20260503190105 14 295 3.2 14.5 0.00 0.00 0.00 33 1011.0
20260503185603 14 284 1.6 14.5 0.00 0.00 0.00 34 1011.1
20260503185113 14 297 8.0 19.3 0.00 0.00 0.00 32 1011.1
20260503184610 13 308 0.0 19.3 0.00 0.00 0.00 35 1011.2
20260503184104 13 295 11.3 12.9 0.00 0.00 0.00 35 1011.3
20260503183604 13 310 0.0 14.5 0.00 0.00 0.00 35 1011.3
20260503183107 13 282 0.0 16.1 0.00 0.00 0.00 35 1011.3
20260503182607 13 306 14.5 16.1 0.00 0.00 0.00 35 1011.4
20260503182104 13 289 0.0 22.5 0.00 0.00 0.00 36 1011.4
20260503181604 13 273 0.0 14.5 0.00 0.00 0.00 36 1011.2
20260503181107 13 323 3.2 16.1 0.00 0.03 0.00 37 1011.4
20260503180608 12 313 3.2 24.1 0.00 0.03 0.00 38 1011.4
20260503180104 12 281 9.7 17.7 0.00 0.03 0.00 37 1011.7
20260503175613 12 294 0.0 12.9 0.00 0.03 0.00 39 1011.5
20260503175110 12 306 3.2 20.9 0.00 0.03 0.00 39 1011.6
20260503174604 12 277 1.6 17.7 0.00 0.03 0.00 38 1011.6
20260503173548 12 338 1.6 11.3 0.00 0.03 0.00 40 1011.7
20260503173045 12 297 0.0 14.5 0.00 0.03 0.00 40 1011.7
20260503172545 12 300 1.6 14.5 0.00 0.03 0.00 39 1011.7
20260503172051 12 293 1.6 12.9 0.00 0.03 0.00 41 1011.8
20260503171544 11 306 1.6 14.5 0.00 0.03 0.00 42 1011.8
20260503171052 11 281 6.4 17.7 0.00 0.03 0.00 41 1011.8
20260503170545 11 333 6.4 14.5 0.00 0.03 0.00 41 1011.8
20260503150545 10 314 3.2 19.3 0.00 0.03 0.00 40 1012.3
20260503131050 9 304 6.4 12.9 0.00 0.03 0.00 53 1012.3
20260503130545 9 307 3.2 9.7 0.00 0.03 0.00 55 1012.3
20260503110545 7 337 0.0 9.7 0.00 0.03 0.00 59 1011.8
20260503081544 8 323 0.0 8.0 0.00 0.05 0.00 52 1010.5
20260503081047 8 333 4.8 11.3 0.00 0.05 0.00 52 1010.5
20260503080544 8 333 0.0 9.7 0.00 0.05 0.00 52 1010.3
20260503072549 8 333 4.8 9.7 0.00 0.05 0.00 51 1010.5
20260503072044 8 323 0.0 4.8 0.00 0.05 0.00 50 1010.5
20260503071547 8 314 0.0 8.0 0.00 0.05 0.00 50 1010.5
20260503071044 8 15 3.2 8.0 0.00 0.05 0.00 49 1010.4
20260503070544 8 318 0.0 9.7 0.00 0.05 0.00 49 1010.3
20260503055044 10 333 4.8 9.7 0.00 0.05 0.00 45 1010.7
20260503054553 10 319 6.4 8.0 0.00 0.05 0.00 45 1010.8
20260503054049 10 303 0.0 4.8 0.00 0.05 0.00 45 1010.7
20260503053547 10 348 0.0 14.5 0.00 0.05 0.00 45 1010.8
20260503053047 10 308 6.4 9.7 0.00 0.05 0.00 45 1010.8
20260503052544 10 333 0.0 1.6 0.00 0.05 0.00 45 1010.8
20260503052049 10 318 0.0 6.4 0.00 0.05 0.00 45 1010.9
20260503051547 10 323 3.2 8.0 0.00 0.05 0.00 45 1011.0
20260503051051 10 28 0.0 11.3 0.00 0.05 0.00 44 1011.1
20260503050547 10 323 4.8 12.9 0.00 0.05 0.00 44 1011.0
20260503050044 10 312 0.0 6.4 0.00 0.05 0.00 44 1011.1
20260503045546 10 341 0.0 3.2 0.00 0.05 0.00 44 1011.2
20260503045046 10 328 0.0 12.9 0.00 0.05 0.00 44 1011.2
20260503044544 10 333 3.2 12.9 0.00 0.05 0.00 44 1011.1
20260503044044 10 316 4.8 9.7 0.00 0.05 0.00 44 1011.1
20260503043547 10 299 0.0 6.4 0.00 0.05 0.00 44 1011.2
20260503043049 11 328 0.0 9.7 0.00 0.05 0.00 43 1011.2
20260503042544 11 121 0.0 6.4 0.00 0.05 0.00 43 1011.2
20260503042047 11 31 0.0 8.0 0.00 0.05 0.00 43 1011.1
20260503041545 11 333 0.0 9.7 0.00 0.05 0.00 43 1011.2
20260503041044 11 333 1.6 6.4 0.00 0.05 0.00 43 1011.2
20260503040552 11 328 0.0 6.4 0.00 0.05 0.00 43 1011.3
20260503040047 11 61 3.2 6.4 0.00 0.05 0.00 43 1011.3
20260503035544 11 323 0.0 4.8 0.00 0.05 0.00 43 1011.2
20260503035047 11 333 0.0 8.0 0.00 0.05 0.00 43 1011.2
20260503034553 11 285 3.2 6.4 0.00 0.05 0.00 43 1011.1
20260503034048 11 323 3.2 1.6 0.00 0.05 0.00 43 1011.1
20260503033544 11 328 0.0 4.8 0.00 0.05 0.00 43 1011.1
20260503033050 11 337 0.0 1.6 0.00 0.05 0.00 43 1011.1
20260503032553 11 346 0.0 3.2 0.00 0.05 0.00 42 1011.1
20260503032044 11 318 0.0 6.4 0.00 0.05 0.00 42 1011.1
20260503031545 11 333 0.0 6.4 0.00 0.05 0.00 41 1011.1
20260503031048 11 328 1.6 4.8 0.00 0.05 0.00 41 1011.1
20260503030544 11 323 3.2 6.4 0.00 0.05 0.00 41 1011.1
20260503030044 11 333 0.0 3.2 0.00 0.05 0.00 41 1011.1
20260503025553 11 17 0.0 0.0 0.00 0.05 0.00 41 1011.2
20260503025052 11 345 0.0 3.2 0.00 0.05 0.00 41 1011.1
20260503024547 12 323 0.0 4.8 0.00 0.05 0.00 41 1011.1
20260503024047 12 328 0.0 0.0 0.00 0.05 0.00 40 1011.1
20260503023553 12 328 0.0 6.4 0.00 0.05 0.00 40 1011.1
20260503023044 12 318 6.4 8.0 0.00 0.05 0.00 40 1011.0
20260503022544 12 297 0.0 6.4 0.00 0.05 0.00 39 1011.0
20260503022044 12 38 0.0 6.4 0.00 0.05 0.00 40 1010.9
20260503021544 12 319 0.0 6.4 0.00 0.05 0.00 39 1010.9
20260503021044 12 323 0.0 6.4 0.00 0.05 0.00 39 1011.0
20260503020546 12 323 1.6 4.8 0.00 0.05 0.00 39 1011.1
20260503020046 12 323 1.6 9.7 0.00 0.05 0.00 39 1011.1
20260503015547 12 333 0.0 8.0 0.00 0.05 0.00 39 1011.0
20260503015047 12 328 0.0 4.8 0.00 0.05 0.00 39 1011.0
20260503014545 12 333 0.0 4.8 0.00 0.05 0.00 40 1011.1
20260503014050 12 356 1.6 6.4 0.00 0.05 0.00 40 1011.2
20260503013544 12 328 0.0 3.2 0.00 0.05 0.00 40 1011.2
20260503013045 12 328 0.0 6.4 0.00 0.05 0.00 40 1011.2
20260503012544 12 306 0.0 8.0 0.00 0.05 0.00 40 1011.2
20260503012047 12 337 0.0 0.0 0.00 0.05 0.00 40 1011.2
20260503011548 12 333 0.0 6.4 0.00 0.05 0.00 39 1011.1
20260503011044 12 337 0.0 4.8 0.00 0.05 0.00 39 1011.0
20260503010549 12 316 0.0 9.7 0.00 0.05 0.00 39 1011.0
20260503010044 12 328 0.0 3.2 0.00 0.05 0.00 39 1010.9
20260503005544 13 328 1.6 3.2 0.00 0.05 0.00 39 1010.8
20260503005050 13 314 1.6 8.0 0.00 0.05 0.00 38 1010.7